Weather reports worldwide

Advertisment
Luqa, Malta (16597): temperature & dewpoint: 12.12.2017 00:00:00 - 18.12.2017 00:00:00 (CET)Luqa, Malta (16597): wind speed: 12.12.2017 00:00:00 - 18.12.2017 00:00:00 (CET)Luqa, Malta (16597): wind direction: 12.12.2017 00:00:00 - 18.12.2017 00:00:00 (CET)Luqa, Malta (16597): reduced air pressure: 12.12.2017 00:00:00 - 18.12.2017 00:00:00 (CET)Luqa, Malta (16597): visibility: 12.12.2017 00:00:00 - 18.12.2017 00:00:00 (CET)
Date & Time tt [°C] td [°C] ff [km/h] ff [kn] dd ppp [hPa] vv [km]
18.12.2017 00:00:00 11,0 6,0 21 11 WNW - 10
17.12.2017 23:00:00 11,0 6,0 26 14 NW - 10
17.12.2017 22:00:00 11,8 4,9 24 13 WNW 1020,5 10
17.12.2017 21:00:00 12,0 6,0 24 13 WNW - 10
17.12.2017 20:00:00 11,0 7,0 35 19 WNW - 10
17.12.2017 19:00:00 10,5 5,7 18 10 WNW 1019,9 10
17.12.2017 18:00:00 13,0 4,0 21 11 NW - 10
17.12.2017 17:00:00 12,0 5,0 16 9 NW - 10
17.12.2017 16:00:00 13,3 4,8 28 15 NW 1018,3 10
17.12.2017 15:00:00 14,0 5,0 22 12 NW - 10
17.12.2017 14:00:00 12,0 6,0 24 13 NW - 10
17.12.2017 13:00:00 14,9 5,6 31 17 NW 1017,9 10
17.12.2017 12:00:00 15,0 5,0 31 17 NW - 10
17.12.2017 11:00:00 15,0 5,0 31 17 NW - 10
17.12.2017 10:00:00 14,1 4,1 29 16 NW 1018,3 10
17.12.2017 09:00:00 14,0 4,0 26 14 NW - 10
17.12.2017 08:00:00 13,0 4,0 22 12 NW - 10
17.12.2017 07:00:00 12,2 3,9 18 10 NW 1016,4 10
17.12.2017 06:00:00 12,0 5,0 28 15 NNW - 10
17.12.2017 05:00:00 12,0 6,0 22 12 NNW - 10
17.12.2017 04:00:00 13,2 5,4 24 13 NW 1014,8 10
17.12.2017 03:00:00 13,0 6,0 22 12 NW - 10
17.12.2017 02:00:00 13,0 7,0 21 11 NW - 10
17.12.2017 01:00:00 12,3 6,1 18 10 NW 1014,3 10
17.12.2017 00:00:00 13,0 7,0 21 11 NNW - 10
16.12.2017 23:00:00 14,0 10,0 16 9 NW - 10
16.12.2017 22:00:00 13,6 9,7 22 12 NNW 1013,0 10
16.12.2017 21:00:00 13,0 11,0 18 10 NNW - 10
16.12.2017 20:00:00 14,0 11,0 15 8 NW - 10
16.12.2017 19:00:00 15,1 10,7 16 9 WNW 1011,3 10
16.12.2017 18:00:00 15,0 9,0 16 9 WNW - 10
16.12.2017 17:00:00 15,0 11,0 8 4 WNW - 10
16.12.2017 16:00:00 15,8 11,7 18 10 WNW 1009,4 10
16.12.2017 15:00:00 16,0 11,0 24 13 WNW - 10
16.12.2017 14:00:00 15,0 12,0 22 12 WNW - 10
16.12.2017 13:00:00 16,1 11,3 21 11 W 1009,3 10
16.12.2017 12:00:00 16,0 11,0 13 7 WSW - 10
16.12.2017 11:00:00 15,0 12,0 11 6 WSW - 10
16.12.2017 10:00:00 14,9 11,7 9 5 WSW 1010,3 9
16.12.2017 09:00:00 15,0 12,0 8 4 WSW - 10
16.12.2017 08:00:00 15,0 12,0 8 4 SW - 8
16.12.2017 07:00:00 16,3 10,4 15 8 WSW 1009,8 10
16.12.2017 06:00:00 17,0 10,0 21 11 WSW - 10
16.12.2017 05:00:00 17,0 11,0 15 8 WSW - 10
16.12.2017 04:00:00 17,5 11,6 21 11 WSW 1010,2 10
16.12.2017 03:00:00 18,0 11,0 24 13 WSW - 10
16.12.2017 02:00:00 18,0 12,0 24 13 WSW - 10
16.12.2017 01:00:00 17,7 12,1 18 10 WSW 1010,7 10
16.12.2017 00:00:00 17,0 12,0 16 9 SW - 10
15.12.2017 23:00:00 17,0 12,0 21 11 SW - 10
15.12.2017 22:00:00 17,4 12,3 22 12 SW 1011,9 10
15.12.2017 21:00:00 17,0 11,0 22 12 SW - 10
15.12.2017 20:00:00 17,0 12,0 22 12 SW - 10
15.12.2017 19:00:00 17,3 11,2 24 13 SW 1012,1 10
15.12.2017 18:00:00 17,0 12,0 22 12 SW - 10
15.12.2017 17:00:00 17,0 11,0 29 16 WSW - 10
15.12.2017 16:00:00 17,7 11,3 31 17 WSW 1012,7 10
15.12.2017 15:00:00 18,0 11,0 28 15 WSW - 10
15.12.2017 14:00:00 18,0 11,0 35 19 WSW - 10
15.12.2017 13:00:00 18,4 10,7 31 17 WSW 1013,7 10
15.12.2017 12:00:00 18,0 11,0 28 15 WSW - 10
15.12.2017 11:00:00 18,0 11,0 28 15 WSW - 10
15.12.2017 10:00:00 17,4 11,6 21 11 WSW 1016,5 10
15.12.2017 09:00:00 17,0 12,0 18 10 WSW - 10
15.12.2017 08:00:00 16,0 11,0 15 8 WSW - 10
15.12.2017 07:00:00 15,6 11,2 11 6 WSW 1016,5 10
15.12.2017 06:00:00 17,0 12,0 16 9 W - 10
15.12.2017 05:00:00 16,0 12,0 16 9 WSW - 10
15.12.2017 04:00:00 16,3 11,2 21 11 WSW 1017,9 10
15.12.2017 03:00:00 16,0 11,0 22 12 WSW - 10
15.12.2017 02:00:00 16,0 10,0 18 10 WSW - 10
15.12.2017 01:00:00 16,1 11,2 18 10 WSW 1018,9 10
15.12.2017 00:00:00 16,0 12,0 18 10 WSW - 10
14.12.2017 23:00:00 15,0 12,0 9 5 SW - 10
14.12.2017 22:00:00 14,5 10,9 9 5 WSW 1020,9 10
14.12.2017 21:00:00 14,0 10,0 8 4 WSW - 10
14.12.2017 20:00:00 14,0 10,0 9 5 W - 10
14.12.2017 19:00:00 14,7 10,3 11 6 W 1021,6 10
14.12.2017 18:00:00 14,0 10,0 9 5 W - 10
14.12.2017 17:00:00 14,0 10,0 13 7 WNW - 10
14.12.2017 16:00:00 15,6 9,0 21 11 WNW 1021,8 10
14.12.2017 15:00:00 16,0 9,0 21 11 WNW - 10
14.12.2017 14:00:00 17,0 9,0 26 14 WNW - 10
14.12.2017 13:00:00 17,0 9,2 26 14 WNW 1022,7 10
14.12.2017 12:00:00 17,0 10,0 26 14 WNW - 10
14.12.2017 11:00:00 17,0 10,0 26 14 WNW - 10
14.12.2017 10:00:00 16,3 9,5 22 12 W 1024,3 10
14.12.2017 09:00:00 15,0 10,0 16 9 WNW - 10
14.12.2017 08:00:00 13,0 9,0 9 5 W - 10
14.12.2017 07:00:00 12,4 8,9 9 5 WNW 1023,9 10
14.12.2017 06:00:00 13,0 9,0 9 5 WNW - 10
14.12.2017 05:00:00 12,0 9,0 11 6 NW - 10
14.12.2017 04:00:00 12,8 9,7 11 6 W 1023,3 10
14.12.2017 03:00:00 13,0 10,0 11 6 NW - 10
14.12.2017 02:00:00 13,0 9,0 13 7 NNW - 10
14.12.2017 01:00:00 13,6 10,7 16 9 NW 1023,6 10
14.12.2017 00:00:00 14,0 11,0 21 11 NNW - 10
13.12.2017 23:00:00 14,0 12,0 21 11 NW - 10
13.12.2017 22:00:00 14,2 11,6 18 10 NNW 1023,8 10
13.12.2017 21:00:00 14,0 11,0 18 10 NNW - 10
13.12.2017 20:00:00 14,0 12,0 18 10 NNW - 10
13.12.2017 19:00:00 14,4 12,6 16 9 NNW 1023,0 10
13.12.2017 18:00:00 14,0 12,0 13 7 NNW - 10
13.12.2017 17:00:00 16,0 13,0 15 8 NW - 10
13.12.2017 16:00:00 18,2 11,2 15 8 W 1021,9 10
13.12.2017 15:00:00 19,0 11,0 11 6 W - 10
13.12.2017 14:00:00 20,0 11,0 13 7 WNW - 10
13.12.2017 13:00:00 19,9 12,5 15 8 W 1022,2 10
13.12.2017 12:00:00 20,0 14,0 13 7 WSW - 10
13.12.2017 11:00:00 19,0 14,0 11 6 WSW - 10
13.12.2017 10:00:00 18,9 14,7 15 8 WSW 1023,6 10
13.12.2017 09:00:00 19,0 15,0 9 5 SW - 10
13.12.2017 08:00:00 17,0 14,0 9 5 SW - 10
13.12.2017 07:00:00 15,5 12,4 9 5 SW 1022,8 10
13.12.2017 06:00:00 15,0 12,0 9 5 SW - 10
13.12.2017 05:00:00 16,0 13,0 13 7 SSW - 10
13.12.2017 04:00:00 15,0 13,0 9 5 S - 10
13.12.2017 03:00:00 15,0 11,0 8 4 SSW - 10
13.12.2017 02:00:00 16,0 11,0 13 7 SSW - 10
13.12.2017 01:00:00 15,6 11,0 13 7 S 1022,0 10
13.12.2017 00:00:00 15,0 10,0 9 5 S - 10
12.12.2017 23:00:00 15,0 11,0 9 5 S - 10
12.12.2017 22:00:00 16,0 10,9 11 6 S 1022,4 10
12.12.2017 21:00:00 15,0 11,0 9 5 S - 10
12.12.2017 20:00:00 16,0 10,0 8 4 SSW - 10
12.12.2017 19:00:00 16,1 10,0 9 5 SSW 1021,5 10
12.12.2017 18:00:00 16,0 10,0 8 4 - - 10
12.12.2017 17:00:00 17,0 10,0 8 4 SSW - 10
12.12.2017 16:00:00 18,5 9,7 11 6 SW 1020,1 10
12.12.2017 15:00:00 19,0 9,0 15 8 SSW - 10
12.12.2017 14:00:00 19,0 11,0 18 10 SSW - 10
12.12.2017 13:00:00 19,3 11,4 18 10 SSW 1019,8 10
12.12.2017 12:00:00 19,0 12,0 21 11 SSW - 10
12.12.2017 11:00:00 19,0 12,0 22 12 SSW - 10
12.12.2017 10:00:00 18,4 11,3 18 10 SSW 1020,4 10
12.12.2017 09:00:00 18,0 11,0 18 10 SSW - 10
12.12.2017 08:00:00 17,0 11,0 18 10 SSW - 10
12.12.2017 07:00:00 16,7 10,9 21 11 SSW 1019,1 10
12.12.2017 06:00:00 17,0 10,0 21 11 SSW - 10
12.12.2017 05:00:00 17,0 10,0 26 14 SSW - 10
12.12.2017 04:00:00 16,7 9,7 24 13 SSW 1018,1 10
12.12.2017 03:00:00 17,0 9,0 24 13 S - 10
12.12.2017 02:00:00 17,0 9,0 22 12 S - 10
12.12.2017 01:00:00 16,3 8,2 21 11 S 1018,4 10
12.12.2017 00:00:00 16,0 9,0 21 11 SSW - 10

tt = temperature
td = dewpoint
ff = wind speed
dd = wind direction
ppp = reduced air pressure
vv = visibility

Next stations